Weather History for Salem, OR

Change the Weather History Date:

Friday, February 15, 2013

  Actual Average Record
Temperature  
Mean Temperature 48 °F 43 °F  
Max Temperature 59 °F 52 °F 65 °F (1934)
Min Temperature 37 °F 34 °F 17 °F (1936)
Degree Days  
Heating Degree Days 17 22  
Month to date heating degree days 308 337  
Since 1 July heating degree days 2775 2964  
Cooling Degree Days 0 0  
Month to date cooling degree days 0 0  
Year to date cooling degree days 0 0  
Moisture  
Dew Point 41 °F    
Average Humidity 79    
Maximum Humidity 100    
Minimum Humidity 57    
Precipitation  
Precipitation 0.00 in 0.16 in 1.58 in (1904)
Month to date precipitation 0.42 2.53  
Year to date precipitation 2.05 8.49  
Snow  
Snow 0.00 in - - ()
Month to date snowfall 0.0  
Snow Depth 0.00 in    
Sea Level Pressure  
Sea Level Pressure 30.33 in    
Wind  
Wind Speed 5 mph (NE)    
Max Wind Speed 17 mph    
Max Gust Speed 43 mph    
Visibility 8 miles    
Events      
T = Trace of Precipitation, MM = Missing Value Source: NWS Daily Summary

Daily Weather History Graph

Daily Weather History Graph

Search for Another Location

Airport:

Trip Planner

Search our weather history database for the weather conditions in past years. The results will help you decide how hot, cold, wet, or windy it might be!

Date:

Astronomy

Feb. 15, 2013 Rise Set
Actual Time 7:12 AM PST 5:40 PM PST
Civil Twilight 6:42 AM PST 6:10 PM PST
Nautical Twilight 6:07 AM PST 6:45 PM PST
Astronomical Twilight 5:33 AM PST 7:19 PM PST
Moon 9:34 AM PST (2/15) No Moon Set
Length of Visible Light 11h 28m
Length of Day
10h 28m
Waxing Crescent, 31% of the Moon is Illuminated
Feb 15
Waxing Crescent
Feb 17
First Quarter
Feb 25
Full
Mar 4
Last Quarter
Mar 11
New

Hourly Weather History & Observations

Time (PST) Temp. Windchill Dew Point Humidity Pressure Visibility Wind Dir Wind Speed Gust Speed Precip Events Conditions
12:56 AM 43.0 °F 41.3 °F 41.0 °F 93% 30.48 in 10.0 mi Variable 3.5 mph - N/A   Clear
1:56 AM 39.9 °F 36.7 °F 39.0 °F 97% 30.47 in 9.0 mi NNW 4.6 mph - N/A   Clear
2:56 AM 39.9 °F 35.8 °F 39.0 °F 97% 30.45 in 10.0 mi NW 5.8 mph - N/A   Clear
3:32 AM 41.0 °F 39.0 °F 41.0 °F 100% 30.44 in 8.0 mi NW 3.5 mph - N/A   Mostly Cloudy
3:56 AM 42.1 °F 40.2 °F 41.0 °F 96% 30.44 in 8.0 mi NNW 3.5 mph - N/A   Overcast
4:14 AM 42.8 °F 41.1 °F 41.0 °F 93% 30.43 in 7.0 mi NNW 3.5 mph - N/A   Overcast
4:21 AM 42.8 °F 41.1 °F 41.0 °F 93% 30.43 in 6.0 mi North 3.5 mph - N/A   Overcast
4:56 AM 42.1 °F 39.2 °F 42.1 °F 100% 30.42 in 4.0 mi NNE 4.6 mph - N/A   Overcast
5:41 AM 42.8 °F 40.1 °F 42.8 °F 100% 30.41 in 6.0 mi North 4.6 mph - N/A   Overcast
5:56 AM 43.0 °F 39.5 °F 42.1 °F 97% 30.41 in 7.0 mi NNE 5.8 mph - N/A   Overcast
6:56 AM 43.0 °F 41.3 °F 42.1 °F 97% 30.40 in 3.0 mi NE 3.5 mph - N/A   Overcast
7:56 AM 42.1 °F 40.2 °F 41.0 °F 96% 30.40 in 3.0 mi NE 3.5 mph - N/A   Overcast
8:56 AM 43.0 °F 41.3 °F 41.0 °F 93% 30.39 in 6.0 mi NNE 3.5 mph - N/A   Overcast
9:56 AM 44.1 °F - 41.0 °F 89% 30.38 in 10.0 mi Calm Calm - N/A   Overcast
10:56 AM 46.0 °F 43.1 °F 41.0 °F 83% 30.37 in 10.0 mi NNE 5.8 mph - N/A   Overcast
11:46 AM 50.0 °F - 42.8 °F 76% 30.34 in 10.0 mi North 4.6 mph - N/A   Mostly Cloudy
11:56 AM 50.0 °F - 42.1 °F 74% 30.34 in 10.0 mi North 6.9 mph - N/A   Mostly Cloudy
12:39 PM 51.8 °F - 42.8 °F 71% 30.31 in 10.0 mi Variable 3.5 mph - N/A   Partly Cloudy
12:56 PM 53.1 °F - 43.0 °F 69% 30.30 in 10.0 mi Variable 4.6 mph - N/A   Clear
1:56 PM 55.9 °F - 44.1 °F 64% 30.27 in 10.0 mi Variable 3.5 mph - N/A   Clear
2:56 PM 57.9 °F - 44.1 °F 60% 30.24 in 10.0 mi NNW 3.5 mph - N/A   Clear
3:56 PM 57.9 °F - 43.0 °F 58% 30.23 in 10.0 mi Calm Calm - N/A   Clear
4:56 PM 57.9 °F - 44.1 °F 60% 30.22 in 10.0 mi Calm Calm - N/A   Clear
5:56 PM 50.0 °F - 45.0 °F 83% 30.22 in 10.0 mi South 8.1 mph - N/A   Clear
6:56 PM 46.9 °F - 43.0 °F 86% 30.23 in 10.0 mi SSE 5.8 mph - N/A   Clear
7:56 PM 43.0 °F 38.8 °F 41.0 °F 93% 30.23 in 10.0 mi SE 6.9 mph - N/A   Clear
8:56 PM 44.1 °F 41.5 °F 42.1 °F 93% 30.24 in 9.0 mi SSE 4.6 mph - N/A   Clear
9:56 PM 41.0 °F 36.4 °F 39.9 °F 96% 30.25 in 8.0 mi SE 6.9 mph - N/A   Clear
10:56 PM 39.0 °F 34.0 °F 39.0 °F 100% 30.24 in 6.0 mi SSE 6.9 mph - N/A   Clear
11:44 PM 37.4 °F 31.4 °F 37.4 °F 100% 30.23 in 2.5 mi ESE 8.1 mph - N/A   Partly Cloudy
11:47 PM 37.4 °F 31.4 °F 37.4 °F 100% 30.23 in 1.2 mi ESE 8.1 mph - N/A   Scattered Clouds
11:51 PM 37.4 °F 31.4 °F 37.4 °F 100% 30.23 in 0.8 mi ESE 8.1 mph - N/A   Mist
11:56 PM 37.9 °F 32.1 °F 37.9 °F 100% 30.24 in 0.8 mi SE 8.1 mph - N/A   Mist